Flight Track Log - Related Links

Times and Time Zones

All times are in EDT time to prevent confusion due to time zone crossing. See the EJA929 flight status page for this flight to view local times or setup timezone preferences in your user account.

Time Position Orientation Groundspeed Altitude Reporting Facility
EDT Latitude Longitude Course Direction KTS MPH feet Rate Location/Type
Thu 10:30:33 41.2931 -95.8919 143° Southeast 154 177 1,700  Level Minneapolis Center
Thu 10:31:34 41.2392 -95.8372 143° Southeast 257 296 5,300 3,000 Climbing Minneapolis Center
Thu 10:32:05 41.2231 -95.8136 132° Southeast 245 282 6,300 3,097 Climbing Minneapolis Center
Thu 10:33:07 41.2683 -95.7186 58° Northeast 282 325 10,100 3,415 Climbing Minneapolis Center
Thu 10:34:08 41.3383 -95.6606 32° Northeast 295 339 13,300 2,976 Climbing Minneapolis Center
Thu 10:35:10 41.4103 -95.5981 33° Northeast 308 354 16,200 2,806 Climbing Minneapolis Center
Thu 10:36:12 41.4764 -95.5156 43° Northeast 334 384 19,100 2,226 Climbing Minneapolis Center
Thu 10:37:14 41.5217 -95.3992 63° Northeast 353 406 20,800 1,839 Climbing Minneapolis Center
Thu 10:38:16 41.5819 -95.2456 62° Northeast 384 442 22,900 1,839 Climbing Minneapolis Center
Thu 10:39:18 41.6358 -95.1081 62° Northeast 412 474 24,600 1,016 Climbing Minneapolis Center
Thu 10:40:20 41.6881 -94.9739 62° Northeast 410 472 25,000 194 Climbing Minneapolis Center
Thu 10:41:22 41.7394 -94.8456 62° Northeast 396 456 25,000  Level Minneapolis Center
Thu 10:42:24 41.7878 -94.7206 63° Northeast 380 437 25,000  Level Minneapolis Center
Thu 10:43:26 41.8339 -94.5981 63° Northeast 372 428 25,000  Level Minneapolis Center
Thu 10:44:28 41.8814 -94.4733 63° Northeast 375 432 25,000  Level Minneapolis Center
Thu 10:45:29 41.9397 -94.3253 62° Northeast 374 430 25,000  Level Minneapolis Center
Thu 10:46:31 41.9878 -94.2006 63° Northeast 375 432 25,000  Level Minneapolis Center
Thu 10:47:33 42.0350 -94.0764 63° Northeast 373 429 25,000  Level Minneapolis Center
Thu 10:48:35 42.1011 -93.9731 49° Northeast 369 425 25,000  Level Minneapolis Center
Thu 10:49:37 42.2128 -93.9317 15° North 393 452 25,000  Level Minneapolis Center
Thu 10:50:39 42.3314 -93.8900 15° North 442 509 25,000  Level Minneapolis Center
Thu 10:51:41 42.4561 -93.8464 14° North 462 532 25,000  Level Minneapolis Center
Thu 10:52:43 42.5861 -93.8008 14° North 480 552 25,000  Level Minneapolis Center
Thu 10:53:45 42.7406 -93.7461 15° North 479 551 25,000  Level Minneapolis Center
Thu 10:54:47 42.8517 -93.7078 14° North 426 490 25,000  Level Minneapolis Center
Thu 10:55:49 42.9550 -93.6694 15° North 394 453 25,000  Level Minneapolis Center
Thu 10:56:51 43.0531 -93.6350 14° North 373 429 25,000  Level Minneapolis Center
Thu 10:57:53 43.1539 -93.5989 15° North 375 432 25,000 -484 Level Minneapolis Center
Thu 10:58:55 43.2886 -93.5525 14° North 409 471 24,000 -480 Descending Minneapolis Center
Thu 10:59:58 43.4042 -93.5411 North 418 481 24,000  Level Minneapolis Center
Thu 11:01:01 43.5183 -93.5308 North 416 479 24,000 -480 Level Minneapolis Center
Thu 11:02:03 43.6414 -93.5181 North 420 483 23,000 -1,065 Descending Minneapolis Center
Thu 11:03:05 43.7492 -93.5069 North 403 464 21,800 -1,742 Descending Minneapolis Center
Thu 11:04:07 43.8486 -93.4992 North 371 427 19,400 -2,952 Descending Minneapolis Center
Thu 11:05:09 43.9642 -93.4875 North 353 406 15,700 -3,000 Descending Minneapolis Center
Thu 11:06:11 44.0572 -93.4792 North 343 395 13,200 -2,274 Descending Minneapolis Center
Thu 11:07:13 44.1517 -93.4692 North 341 392 11,000 -1,065 Descending Minneapolis Center
Thu 11:08:15 44.2425 -93.4572 North 329 379 11,000  Level Minneapolis Center
Thu 11:09:17 44.3269 -93.3969 27° Northeast 340 391 11,000  Level Minneapolis Center
Thu 11:10:19 44.4089 -93.3400 26° Northeast 332 382 11,000 -194 Level Minneapolis Center
Thu 11:11:21 44.4931 -93.2792 27° Northeast 288 331 10,600 -532 Descending Minneapolis Center
Thu 11:12:23 44.5622 -93.2303 27° Northeast 281 323 9,900 -823 Descending Minneapolis Center
Thu 11:13:25 44.6311 -93.1917 22° Northeast 275 316 8,900 -919 Descending Minneapolis Center
Thu 11:14:27 44.7058 -93.2292 340° North 286 329 8,000 -435 Descending Minneapolis Center
Thu 11:15:29 44.7697 -93.2700 336° Northwest 236 272 8,000 -48 Level Minneapolis Center
Thu 11:16:31 44.8225 -93.3178 327° Northwest 228 262 7,900 -677 Descending Minneapolis Center
Thu 11:17:33 44.8492 -93.3964 296° West 225 259 6,600 -919 Descending Minneapolis Center
Thu 11:18:35 44.8742 -93.4922 290° West 217 250 6,000 -290 Descending Minneapolis Center
Thu 11:19:37 44.8928 -93.5642 290° West 197 227 6,000 -484 Level Minneapolis Center
Thu 11:20:39 44.9308 -93.5653 359° North 191 220 5,000 -484 Descending Minneapolis Center
Thu 11:21:41 44.9281 -93.4925 93° East 187 215 5,000 -387 Level Minneapolis Center
Thu 11:22:43 44.9250 -93.4236 94° East 177 204 4,200 -968 Descending Minneapolis Center
Thu 11:23:45 44.9219 -93.3528 93° East 180 207 3,000 -1,016 Descending Minneapolis Center
Thu 11:24:47 44.9128 -93.2931 102° East 124 143 2,100 -871 Descending Minneapolis Center
Thu 11:25:49 44.8947 -93.2494 120° Southeast 127 146 1,200 -871 Descending Minneapolis Center
Thu 11:27:00 44.8820 -93.2218 55° Northeast  Level Estimated
Thu 11:34:00 44.8820 -93.2218 55° Northeast  Level Estimated

Login

Don't have an account? Register now (free) for customized features, flight alerts, and more!